Regional Weather Roundup
Issued by NWS

Home | Current Version | Previous Version | Text Only | Print | Product List | Glossary Off
Versions: 1 2 3 4 5 6 7 8 9 10 11 12 13 14 15 16 17 18 19 20 21 22 23 24 25 26 27 28 29 30 31 32 33 34 35 36 37 38 39 40 41 42 43 44 45 46 47 48 49 50

000
ASUS43 KIND 080859
RWRIN

WEATHER ROUNDUP FOR INDIANA
NATIONAL WEATHER SERVICE INDIANAPOLIS IN
400 AM EST THU DEC 08 2016

NOTE: "FAIR" INDICATES FEW OR NO CLOUDS BELOW 12,000 FEET WITH NO
SIGNIFICANT WEATHER AND/OR OBSTRUCTIONS TO VISIBILITY.

* - STATION DOES NOT REPORT WEATHER SUCH AS PRECIPITATION OR FOG.

+ - STATION NOT QUALITY CONTROLLED BY THE NATIONAL WEATHER SERVICE.
    USE DATA WITH CAUTION...ESPECIALLY DEWPOINT AND RELATIVE
    HUMIDITY OBSERVATIONS.

INZ001>003-010>013-019-020-081000-
NORTHWEST INDIANA

CITY           SKY/WX    TMP DP  RH WIND       PRES   REMARKS
MONTICELLO +   CLOUDY    24  13  62 W17       30.20S WCI  10

$$

LMZ046-743>745-081000-
SOUTHERN LAKE MICHIGAN

STATION/POSITION TIME  TEMP    WIND        PRES    WAVE
                       AIR SEA DIR/SP/G            HT
                 (UTC) (F)     (DEG/KT/KT) (MB)    (FT)
BURNS HARBOR     0840   26     260/ 21/ 29 1021.7F
MICHIGAN CITY    0830   25     230/ 22/ 26   N/A

$$

INZ004-005-014>016-021>024-081000-
NORTH CENTRAL INDIANA

CITY           SKY/WX    TMP DP  RH WIND       PRES   REMARKS
GOSHEN         CLOUDY    24  14  65 W16       30.12F WCI  11
SOUTH BEND     CLOUDY    22  16  78 W17       30.13S WCI   8

$$

INZ006>009-017-018-025>027-081000-
NORTHEAST INDIANA

CITY           SKY/WX    TMP DP  RH WIND       PRES   REMARKS
ANGOLA *+      CLOUDY    25  19  80 W12       30.07F WCI  14
FORT WAYNE     CLOUDY    24  15  68 W22       30.14S WCI   9
KENDALLVILLE + FLURRIES  23  17  80 W20G26    30.10S WCI   8

$$

INZ028-029-035-036-043>045-051>053-081000-
WEST CENTRAL INDIANA

CITY           SKY/WX    TMP DP  RH WIND       PRES   REMARKS
CRAWFORDSVL +  CLOUDY    22  17  79 W12G20    30.23S WCI  11
GREENCASTLE +  CLEAR     25  18  74 W10G17    30.24S WCI  15
LAFAYETTE      CLOUDY    23  15  71 W16G26    30.23S WCI  10
TERRE HAUTE    PTCLDY    25  13  60 NW12G24   30.29R WCI  14

$$

INZ030>032-037>040-046>048-054>057-064-065-081000-
CENTRAL INDIANA

CITY           SKY/WX    TMP DP  RH WIND       PRES   REMARKS
FRANKFORT +    CLOUDY    26  18  72 NW17      30.22S WCI  13
GREENWOOD *+   PTCLDY    27  17  67 W9G21     30.21S WCI  17
INDIANAPOLIS   PTCLDY    25  15  66 W14G24    30.22R WCI  13
-EAGLE CREEK   CLOUDY    27  18  69 W13G22    30.20S WCI  16
KOKOMO +       FLURRIES  24  18  77 W20G25    30.18F WCI  10
SHELBYVILLE    CLOUDY    28  18  66 W12       30.20S WCI  18

$$

INZ033-034-041-042-049-050-058-059-081000-
EAST CENTRAL INDIANA

CITY           SKY/WX    TMP DP  RH WIND       PRES   REMARKS
MUNCIE         CLOUDY    25  16  68 W13G24    30.17S WCI  14

$$

INZ060-061-067>069-081>083-085>088-081000-
SOUTHWEST INDIANA

CITY           SKY/WX    TMP DP  RH WIND       PRES   REMARKS
EVANSVILLE     CLOUDY    31  20  63 NW10G21   30.32R WCI  22
HUNTINGBURG *+ MOCLDY    30  21  69 NW10      30.30R WCI  21

$$

INZ062-063-066-070>080-084-089>092-081000-
SOUTH CENTRAL AND SOUTHEAST INDIANA

CITY           SKY/WX    TMP DP  RH WIND       PRES   REMARKS
BLOOMINGTON    CLOUDY    27  16  63 W13G21    30.23S WCI  16
MADISON *+     PTCLDY    30  19  64 W7        30.24R WCI  23

$$





USA.gov is the U.S. government's official web portal to all federal, state and local government web resources and services.